Terminal Aerodrome Forecast
Issued by NWS Quad Cities IA IL

Home | Current Version | Previous Version | Text Only | Print | Product List | Glossary On
Versions: 1 2 3 4 5 6 7 8 9 10 11 12 13 14 15 16 17 18 19 20 21 22 23 24 25 26 27 28 29 30 31
810
FTUS43 KDVN 211623 AAA
TAFDBQ
TAF AMD
KDBQ 211623Z 2116/2212 12006KT P6SM SCT100
     FM211700 15008KT P6SM -SHRA SCT080 BKN120
     FM212000 14010KT P6SM BKN080
     FM220000 16010KT P6SM BKN090=

USA.gov is the U.S. government's official web portal to all federal, state and local government web resources and services.